Dobrodošli na spletni strani vremenske postaje Senovo. Vse informacije so informativnega značaja, saj vremenska postaja ni del državne mreže meteoroloških postaj. AKTUALNIH OBVESTIL NI.


Posebna pozornost v zvezi z vremenskimi dogajanji ni potrebna.    Posebna pozornost v zvezi z vremenskimi dogajanji ni potrebna.

Pogled proti Armezu več informacij Pogled proti Armezu


Bohor več informacij Bohor


Radar strel več informacij blitzortung!


Radar padavin več informacij rain snow radar


Obiščite še:

Template documentation
and downloads

And another site



Weather Underground, zgodovina - Tekstovno

Dnevni povzetek za Januar 17, 2017 Enote:  Angleško    Metrično   Obe
« Predhodni Dan
Naslednji Dan »
Dnevni Tedenski Mesečni Letni Po meri
  Višja: Nižja: Povprečje:
Temperatura: TemperatureC °F -1.8 °F -1 °F
Točka rosišča: DewpointC °F -9.2 °F -7.9 °F
Vlažnost: Humidity % 54 % 59 %
Hitrost vetra: WindSpeedKMH mph 5.5 mph 12.4 mph
Sunki vetra: WindSpeedGustKMH mph - -
Veter:- - NE
Zračni tlak: PressurehPa in 1018.8 in -
Padavine: 0.0 in    
Historical Graphs
 
 
Tabelarni podarki za Januar 17, 2017
Čas Temperatura Točka rosišča Zračni tlak Veter Hitrost vetra Sunki vetra Vlažnost Intenziteta padavin (urna)
TemperatureC °F DewpointC °F PressurehPa in Calm     Humidity % HourlyPrecipMM in
00:00 -1.8 °F -7.7 °F 1019.9 in ENE 17.1 mph 32.8 mph 64 % 0.0 in
00:06 -1.8 °F -7.7 °F 1019.9 in ENE 17.9 mph 28.5 mph 64 % 0.0 in
00:12 -1.8 °F -7.7 °F 1019.9 in NE 19.1 mph 33.8 mph 64 % 0.0 in
00:17 -1.8 °F -7.7 °F 1019.9 in NE 17.4 mph 32.0 mph 64 % 0.0 in
00:22 -1.8 °F -7.9 °F 1019.9 in NE 14.2 mph 36.7 mph 63 % 0.0 in
00:27 -1.8 °F -7.7 °F 1018.8 in NE 12.1 mph 36.7 mph 64 % 0.0 in
00:32 -1.7 °F -7.8 °F 1018.8 in NE 10.8 mph 28.0 mph 63 % 0.0 in
00:37 -1.8 °F -7.7 °F 1018.8 in NE 13.4 mph 33.1 mph 64 % 0.0 in
00:42 -1.8 °F -7.9 °F 1019.9 in NE 14.0 mph 33.1 mph 63 % 0.0 in
00:47 -1.7 °F -7.8 °F 1019.9 in NNE 12.6 mph 26.7 mph 63 % 0.0 in
00:52 -1.7 °F -7.8 °F 1019.9 in NNE 10.5 mph 20.1 mph 63 % 0.0 in
00:57 -1.8 °F -7.7 °F 1019.9 in NE 8.7 mph 19.8 mph 64 % 0.0 in
01:02 -1.8 °F -7.9 °F 1019.9 in NE 12.2 mph 27.0 mph 63 % 0.0 in
01:07 -1.8 °F -7.7 °F 1019.9 in NE 15.0 mph 31.7 mph 64 % 0.0 in
01:12 -1.8 °F -7.7 °F 1019.9 in NE 14.5 mph 38.1 mph 64 % 0.0 in
01:17 -1.7 °F -7.8 °F 1019.9 in NE 13.8 mph 38.1 mph 63 % 0.0 in
01:22 -1.7 °F -7.8 °F 1019.9 in NE 12.4 mph 35.2 mph 63 % 0.0 in
01:27 -1.7 °F -7.6 °F 1019.9 in NE 13.7 mph 35.2 mph 64 % 0.0 in
01:32 -1.7 °F -7.6 °F 1019.9 in ENE 15.8 mph 39.6 mph 64 % 0.0 in
01:37 -1.7 °F -7.6 °F 1019.9 in NE 16.3 mph 39.6 mph 64 % 0.0 in
01:42 -1.7 °F -7.6 °F 1019.9 in NE 16.3 mph 37.5 mph 64 % 0.0 in
01:47 -1.7 °F -7.6 °F 1019.9 in NE 15.9 mph 27.4 mph 64 % 0.0 in
01:52 -1.7 °F -7.6 °F 1019.9 in NE 15.6 mph 42.2 mph 64 % 0.0 in
01:57 -1.7 °F -7.6 °F 1019.9 in NE 14.3 mph 42.2 mph 64 % 0.0 in
02:02 -1.7 °F -7.6 °F 1019.9 in ENE 12.4 mph 23.3 mph 64 % 0.0 in
02:07 -1.7 °F -7.6 °F 1019.9 in ENE 10.0 mph 23.3 mph 64 % 0.0 in
02:12 -1.6 °F -7.7 °F 1020.9 in NE 12.6 mph 27.4 mph 63 % 0.0 in
02:17 -1.6 °F -7.5 °F 1020.9 in ENE 14.8 mph 31.4 mph 64 % 0.0 in
02:22 -1.6 °F -7.5 °F 1020.9 in NE 13.5 mph 31.4 mph 64 % 0.0 in
02:27 -1.6 °F -7.5 °F 1019.9 in NE 14.3 mph 24.5 mph 64 % 0.0 in
02:32 -1.6 °F -7.5 °F 1019.9 in NE 14.5 mph 31.4 mph 64 % 0.0 in
02:37 -1.6 °F -7.5 °F 1019.9 in NNE 13.8 mph 31.4 mph 64 % 0.0 in
02:42 -1.6 °F -7.5 °F 1019.9 in NNE 12.4 mph 27.4 mph 64 % 0.0 in
02:47 -1.6 °F -7.5 °F 1019.9 in NE 11.7 mph 23.8 mph 64 % 0.0 in
02:53 -1.5 °F -7.4 °F 1019.9 in ENE 13.0 mph 23.8 mph 64 % 0.0 in
02:58 -1.5 °F -7.4 °F 1020.9 in NE 11.6 mph 23.8 mph 64 % 0.0 in
03:03 -1.5 °F -7.4 °F 1020.9 in NE 10.0 mph 23.8 mph 64 % 0.0 in
03:08 -1.5 °F -7.4 °F 1020.9 in NE 10.3 mph 23.8 mph 64 % 0.0 in
03:13 -1.5 °F -7.4 °F 1020.9 in NE 11.6 mph 24.8 mph 64 % 0.0 in
03:18 -1.5 °F -7.4 °F 1020.9 in NE 11.6 mph 24.8 mph 64 % 0.0 in
03:23 -1.5 °F -7.4 °F 1020.9 in NE 11.4 mph 27.0 mph 64 % 0.0 in
03:28 -1.5 °F -7.4 °F 1019.9 in NE 13.5 mph 30.6 mph 64 % 0.0 in
03:33 -1.4 °F -7.3 °F 1019.9 in NE 14.2 mph 30.6 mph 64 % 0.0 in
03:38 -1.5 °F -7.2 °F 1019.9 in NE 14.3 mph 30.9 mph 65 % 0.0 in
03:43 -1.5 °F -7.2 °F 1019.9 in NE 13.2 mph 30.9 mph 65 % 0.0 in
03:48 -1.5 °F -7.2 °F 1019.9 in NE 9.5 mph 20.9 mph 65 % 0.0 in
03:53 -1.5 °F -7.2 °F 1019.9 in NNE 9.2 mph 16.9 mph 65 % 0.0 in
03:58 -1.5 °F -7.2 °F 1019.9 in NE 11.1 mph 19.1 mph 65 % 0.0 in
04:03 -1.5 °F -7.1 °F 1019.9 in NE 11.3 mph 20.1 mph 66 % 0.0 in
04:08 -1.5 °F -7.1 °F 1019.9 in NE 11.6 mph 29.9 mph 66 % 0.0 in
04:13 -1.5 °F -7.1 °F 1019.9 in NE 13.5 mph 29.9 mph 66 % 0.0 in
04:18 -1.5 °F -7.1 °F 1019.9 in NE 13.8 mph 27.4 mph 66 % 0.0 in
04:23 -1.5 °F -7.1 °F 1019.9 in NE 12.6 mph 30.6 mph 66 % 0.0 in
04:28 -1.5 °F -7.1 °F 1019.9 in NE 11.9 mph 30.6 mph 66 % 0.0 in
04:33 -1.5 °F -7.1 °F 1019.9 in NE 13.8 mph 36.0 mph 66 % 0.0 in
04:38 -1.5 °F -7.1 °F 1019.9 in NE 15.4 mph 36.0 mph 66 % 0.0 in
04:43 -1.6 °F -7.1 °F 1019.9 in NE 14.6 mph 31.7 mph 66 % 0.0 in
04:48 -1.6 °F -6.9 °F 1019.9 in NE 13.7 mph 31.4 mph 67 % 0.0 in
04:53 -1.6 °F -6.9 °F 1019.9 in NE 12.4 mph 27.0 mph 67 % 0.0 in
04:58 -1.6 °F -6.9 °F 1019.9 in NE 11.7 mph 19.5 mph 67 % 0.0 in
05:03 -1.6 °F -6.9 °F 1019.9 in NE 10.5 mph 27.4 mph 67 % 0.0 in
05:08 -1.6 °F -6.9 °F 1019.9 in NE 11.9 mph 27.4 mph 67 % 0.0 in
05:13 -1.6 °F -6.9 °F 1019.9 in NE 12.4 mph 28.5 mph 67 % 0.0 in
05:18 -1.5 °F -7.1 °F 1019.9 in NE 11.4 mph 28.5 mph 66 % 0.0 in
05:23 -1.5 °F -7.1 °F 1019.9 in NNE 12.7 mph 32.0 mph 66 % 0.0 in
05:28 -1.5 °F -7.1 °F 1018.8 in NNE 14.0 mph 32.0 mph 66 % 0.0 in
05:33 -1.5 °F -7.1 °F 1018.8 in NE 13.8 mph 24.8 mph 66 % 0.0 in
05:38 -1.5 °F -7.1 °F 1018.8 in ENE 11.7 mph 25.3 mph 66 % 0.0 in
05:43 -1.5 °F -7.1 °F 1019.9 in ENE 13.4 mph 30.9 mph 66 % 0.0 in
05:48 -1.6 °F -6.9 °F 1019.9 in ENE 15.6 mph 36.4 mph 67 % 0.0 in
05:53 -1.5 °F -7.1 °F 1019.9 in NE 16.6 mph 36.4 mph 66 % 0.0 in
05:58 -1.5 °F -7.1 °F 1019.9 in NE 15.8 mph 30.6 mph 66 % 0.0 in
06:03 -1.5 °F -7.1 °F 1019.9 in NE 14.6 mph 30.6 mph 66 % 0.0 in
06:08 -1.5 °F -7.1 °F 1019.9 in NE 16.4 mph 31.4 mph 66 % 0.0 in
06:13 -1.5 °F -7.1 °F 1020.9 in ENE 15.8 mph 31.7 mph 66 % 0.0 in
06:18 -1.5 °F -6.8 °F 1020.9 in ENE 13.5 mph 31.7 mph 67 % 0.0 in
06:23 -1.5 °F -7.1 °F 1020.9 in NE 12.4 mph 18.3 mph 66 % 0.0 in
06:28 -1.6 °F -7.1 °F 1019.9 in NE 12.1 mph 17.7 mph 66 % 0.0 in
06:33 -1.6 °F -7.1 °F 1019.9 in ENE 12.2 mph 19.8 mph 66 % 0.0 in
06:38 -1.5 °F -7.1 °F 1019.9 in NE 14.0 mph 26.7 mph 66 % 0.0 in
06:44 -1.5 °F -7.1 °F 1019.9 in ENE 16.4 mph 28.8 mph 66 % 0.0 in
06:49 -1.5 °F -7.1 °F 1019.9 in ENE 17.7 mph 30.9 mph 66 % 0.0 in
06:54 -1.5 °F -7.2 °F 1019.9 in ENE 17.4 mph 31.4 mph 65 % 0.0 in
06:59 -1.5 °F -7.2 °F 1020.9 in NE 17.1 mph 31.4 mph 65 % 0.0 in
07:04 -1.5 °F -7.2 °F 1020.9 in NE 14.6 mph 27.4 mph 65 % 0.0 in
07:09 -1.5 °F -7.2 °F 1020.9 in ENE 11.7 mph 24.8 mph 65 % 0.0 in
07:14 -1.5 °F -7.2 °F 1020.9 in ENE 11.7 mph 24.5 mph 65 % 0.0 in
07:19 -1.5 °F -7.2 °F 1020.9 in NE 10.9 mph 24.5 mph 65 % 0.0 in
07:24 -1.5 °F -7.2 °F 1020.9 in NE 10.6 mph 26.2 mph 65 % 0.0 in
07:29 -1.5 °F -7.2 °F 1021.9 in ENE 12.1 mph 28.0 mph 65 % 0.0 in
07:34 -1.5 °F -7.2 °F 1021.9 in ENE 15.8 mph 29.9 mph 65 % 0.0 in
07:39 -1.5 °F -7.2 °F 1021.9 in ENE 15.3 mph 29.9 mph 65 % 0.0 in
07:44 -1.5 °F -7.4 °F 1021.9 in ENE 13.0 mph 33.8 mph 64 % 0.0 in
07:49 -1.4 °F -7.3 °F 1021.9 in NE 13.4 mph 33.8 mph 64 % 0.0 in
07:54 -1.4 °F -7.6 °F 1021.9 in NE 13.2 mph 27.0 mph 63 % 0.0 in
07:59 -1.4 °F -7.3 °F 1021.9 in NE 13.5 mph 23.8 mph 64 % 0.0 in
08:04 -1.4 °F -7.6 °F 1021.9 in NE 13.4 mph 23.3 mph 63 % 0.0 in
08:09 -1.4 °F -7.7 °F 1021.9 in NE 13.0 mph 32.8 mph 62 % 0.0 in
08:14 -1.4 °F -7.6 °F 1021.9 in NE 13.7 mph 32.8 mph 63 % 0.0 in
08:19 -1.4 °F -7.7 °F 1021.9 in NE 14.5 mph 28.0 mph 62 % 0.0 in
08:24 -1.4 °F -7.7 °F 1021.9 in NE 14.6 mph 28.5 mph 62 % 0.0 in
08:29 -1.4 °F -7.7 °F 1022.9 in ENE 14.3 mph 36.7 mph 62 % 0.0 in
08:34 -1.3 °F -7.7 °F 1022.9 in NE 14.2 mph 36.7 mph 62 % 0.0 in
08:39 -1.3 °F -7.7 °F 1022.9 in NE 15.8 mph 31.4 mph 62 % 0.0 in
08:44 -1.3 °F -7.7 °F 1021.9 in NE 15.1 mph 31.4 mph 62 % 0.0 in
08:49 -1.2 °F -7.8 °F 1021.9 in ENE 14.6 mph 39.3 mph 61 % 0.0 in
08:54 -1.2 °F -7.8 °F 1021.9 in ENE 14.5 mph 39.3 mph 61 % 0.0 in
08:59 -1.2 °F -7.6 °F 1022.9 in NE 13.8 mph 29.1 mph 62 % 0.0 in
09:04 -1.2 °F -7.8 °F 1022.9 in NE 15.0 mph 27.7 mph 61 % 0.0 in
09:09 -1.2 °F -7.8 °F 1022.9 in NE 13.4 mph 27.7 mph 61 % 0.0 in
09:14 -1.1 °F -7.7 °F 1022.9 in NE 13.7 mph 24.5 mph 61 % 0.0 in
09:19 -1.1 °F -7.9 °F 1022.9 in ENE 15.1 mph 32.0 mph 60 % 0.0 in
09:24 -1.1 °F -7.9 °F 1022.9 in ENE 15.3 mph 32.0 mph 60 % 0.0 in
09:29 -1.2 °F -7.8 °F 1022.9 in NE 13.7 mph 30.9 mph 61 % 0.0 in
09:34 -1.2 °F -8.0 °F 1022.9 in NE 9.5 mph 25.3 mph 60 % 0.0 in
09:39 -1.1 °F -7.9 °F 1023.9 in NE 11.7 mph 25.3 mph 60 % 0.0 in
09:44 -1.1 °F -7.9 °F 1023.9 in ENE 15.3 mph 24.8 mph 60 % 0.0 in
09:49 -1.1 °F -7.9 °F 1023.9 in ENE 17.2 mph 36.7 mph 60 % 0.0 in
09:54 -1.1 °F -8.1 °F 1023.9 in ENE 16.3 mph 36.7 mph 59 % 0.0 in
09:59 -1.0 °F -7.8 °F 1023.9 in ENE 13.7 mph 27.7 mph 60 % 0.0 in
10:04 -1.0 °F -8.0 °F 1023.9 in ENE 14.6 mph 32.8 mph 59 % 0.0 in
10:09 -1.0 °F -8.0 °F 1023.9 in ENE 17.7 mph 32.8 mph 59 % 0.0 in
10:14 -1.0 °F -8.0 °F 1023.9 in ENE 18.8 mph 32.0 mph 59 % 0.0 in
10:19 -0.9 °F -7.9 °F 1023.9 in ENE 14.8 mph 31.7 mph 59 % 0.0 in
10:24 -0.9 °F -7.9 °F 1023.9 in NE 11.1 mph 38.5 mph 59 % 0.0 in
10:29 -0.8 °F -7.8 °F 1023.9 in NE 11.9 mph 38.5 mph 59 % 0.0 in
10:34 -0.8 °F -7.8 °F 1023.9 in NE 11.9 mph 27.0 mph 59 % 0.0 in
10:39 -0.7 °F -7.7 °F 1023.9 in ENE 12.2 mph 27.0 mph 59 % 0.0 in
10:44 -0.6 °F -7.6 °F 1023.9 in ENE 12.6 mph 24.8 mph 59 % 0.0 in
10:50 -0.6 °F -7.8 °F 1023.9 in NE 13.5 mph 24.5 mph 58 % 0.0 in
10:55 -0.5 °F -7.8 °F 1023.9 in NE 14.0 mph 28.8 mph 58 % 0.0 in
11:00 -0.5 °F -7.8 °F 1023.9 in NE 12.4 mph 28.8 mph 58 % 0.0 in
11:05 -0.4 °F -7.7 °F 1023.9 in NE 10.3 mph 24.5 mph 58 % 0.0 in
11:10 -0.4 °F -7.7 °F 1023.9 in NE 12.6 mph 27.0 mph 58 % 0.0 in
11:15 -0.3 °F -7.6 °F 1023.9 in NE 13.7 mph 27.0 mph 58 % 0.0 in
11:20 -0.3 °F -7.6 °F 1023.9 in NE 12.1 mph 24.8 mph 58 % 0.0 in
11:25 -0.2 °F -7.5 °F 1023.9 in NE 13.5 mph 27.7 mph 58 % 0.0 in
11:30 -0.2 °F -7.7 °F 1023.9 in NE 15.0 mph 28.8 mph 57 % 0.0 in
11:35 -0.1 °F -7.6 °F 1023.9 in NE 15.3 mph 31.7 mph 57 % 0.0 in
11:40 0.0 °F -7.5 °F 1023.9 in NE 15.0 mph 31.7 mph 57 % 0.0 in
11:45 -0.1 °F -7.6 °F 1023.9 in NE 15.4 mph 28.5 mph 57 % 0.0 in
11:50 0.0 °F -7.5 °F 1023.9 in NE 16.6 mph 33.5 mph 57 % 0.0 in
11:55 0.0 °F -7.5 °F 1023.9 in ENE 15.4 mph 33.5 mph 57 % 0.0 in
12:00 0.1 °F -7.7 °F 1023.9 in ENE 12.6 mph 32.0 mph 56 % 0.0 in
12:05 0.2 °F -7.3 °F 1023.9 in ENE 12.1 mph 29.9 mph 57 % 0.0 in
12:10 0.3 °F -7.4 °F 1023.9 in ENE 13.0 mph 42.5 mph 56 % 0.0 in
12:15 0.3 °F -7.4 °F 1023.9 in ENE 13.0 mph 42.5 mph 56 % 0.0 in
12:20 0.3 °F -7.4 °F 1023.9 in ENE 13.4 mph 28.5 mph 56 % 0.0 in
12:25 0.3 °F -7.4 °F 1022.9 in ENE 14.8 mph 28.5 mph 56 % 0.0 in
12:30 0.3 °F -7.4 °F 1022.9 in ENE 16.3 mph 37.0 mph 56 % 0.0 in
12:35 0.4 °F -7.6 °F 1022.9 in NE 15.0 mph 37.0 mph 55 % 0.0 in
12:40 0.6 °F -7.2 °F 1022.9 in NE 10.6 mph 31.7 mph 56 % 0.0 in
12:45 0.4 °F -7.6 °F 1022.9 in NE 10.5 mph 22.4 mph 55 % 0.0 in
12:50 0.3 °F -7.4 °F 1022.9 in ENE 13.5 mph 24.5 mph 56 % 0.0 in
12:55 0.1 °F -7.7 °F 1022.9 in ENE 13.0 mph 24.5 mph 56 % 0.0 in
13:00 0.1 °F -7.7 °F 1022.9 in NE 12.9 mph 30.9 mph 56 % 0.0 in
13:05 0.1 °F -7.7 °F 1022.9 in NNE 12.6 mph 30.9 mph 56 % 0.0 in
13:10 0.1 °F -7.9 °F 1023.9 in NNE 12.6 mph 20.6 mph 55 % 0.0 in
13:16 0.3 °F -7.4 °F 1023.9 in NE 12.1 mph 20.6 mph 56 % 0.0 in
13:21 0.3 °F -7.4 °F 1023.9 in ENE 10.3 mph 17.2 mph 56 % 0.0 in
13:26 0.3 °F -7.4 °F 1023.9 in NE 9.3 mph 24.5 mph 56 % 0.0 in
13:31 0.3 °F -7.4 °F 1023.9 in NE 9.0 mph 24.5 mph 56 % 0.0 in
13:36 0.3 °F -7.4 °F 1023.9 in NE 9.8 mph 20.9 mph 56 % 0.0 in
13:41 0.3 °F -7.4 °F 1023.9 in NE 11.4 mph 23.3 mph 56 % 0.0 in
13:46 0.3 °F -7.4 °F 1023.9 in NE 12.1 mph 23.3 mph 56 % 0.0 in
13:51 0.3 °F -7.4 °F 1023.9 in ENE 12.7 mph 21.2 mph 56 % 0.0 in
13:56 0.3 °F -7.4 °F 1024.9 in ENE 11.1 mph 21.2 mph 56 % 0.0 in
14:01 0.2 °F -7.6 °F 1024.9 in NE 10.0 mph 24.8 mph 56 % 0.0 in
14:06 0.2 °F -7.6 °F 1024.9 in NE 10.5 mph 24.8 mph 56 % 0.0 in
14:11 0.1 °F -7.7 °F 1023.9 in NE 10.0 mph 19.5 mph 56 % 0.0 in
14:16 0.1 °F -7.7 °F 1023.9 in NE 8.7 mph 21.6 mph 56 % 0.0 in
14:21 0.1 °F -7.7 °F 1023.9 in NE 8.8 mph 22.7 mph 56 % 0.0 in
14:26 0.1 °F -7.7 °F 1023.9 in NE 10.6 mph 23.8 mph 56 % 0.0 in
14:31 0.1 °F -7.7 °F 1023.9 in NE 10.5 mph 23.8 mph 56 % 0.0 in
14:36 0.1 °F -7.7 °F 1023.9 in NE 10.0 mph 18.0 mph 56 % 0.0 in
14:41 0.1 °F -7.7 °F 1022.9 in NE 10.5 mph 23.3 mph 56 % 0.0 in
14:46 0.1 °F -7.7 °F 1022.9 in NE 12.1 mph 30.6 mph 56 % 0.0 in
14:51 0.0 °F -7.7 °F 1022.9 in NE 12.4 mph 30.6 mph 56 % 0.0 in
14:56 -0.1 °F -7.8 °F 1023.9 in NE 12.4 mph 27.7 mph 56 % 0.0 in
15:01 -0.2 °F -7.9 °F 1023.9 in NE 12.4 mph 31.7 mph 56 % 0.0 in
15:06 -0.2 °F -7.7 °F 1023.9 in NE 11.1 mph 31.7 mph 57 % 0.0 in
15:11 -0.2 °F -7.7 °F 1023.9 in NE 10.5 mph 24.5 mph 57 % 0.0 in
15:16 -0.2 °F -7.7 °F 1023.9 in NE 12.7 mph 24.5 mph 57 % 0.0 in
15:21 -0.3 °F -7.8 °F 1023.9 in ENE 14.6 mph 26.2 mph 57 % 0.0 in
15:26 -0.3 °F -7.8 °F 1024.9 in ENE 15.8 mph 31.7 mph 57 % 0.0 in
15:31 -0.4 °F -7.9 °F 1024.9 in ENE 15.3 mph 31.7 mph 57 % 0.0 in
15:36 -0.5 °F -7.8 °F 1024.9 in ENE 13.0 mph 24.5 mph 58 % 0.0 in
15:41 -0.5 °F -8.0 °F 1024.9 in NE 13.5 mph 24.5 mph 57 % 0.0 in
15:46 -0.5 °F -8.0 °F 1024.9 in NE 13.2 mph 23.0 mph 57 % 0.0 in
15:51 -0.5 °F -7.8 °F 1024.9 in NE 12.4 mph 21.2 mph 58 % 0.0 in
15:56 -0.5 °F -8.0 °F 1024.9 in NE 12.1 mph 21.2 mph 57 % 0.0 in
16:01 -0.5 °F -8.0 °F 1024.9 in ENE 12.1 mph 20.6 mph 57 % 0.0 in
16:06 -0.5 °F -8.0 °F 1024.9 in ENE 13.7 mph 21.2 mph 57 % 0.0 in
16:11 -0.6 °F -7.8 °F 1024.9 in ENE 13.4 mph 28.0 mph 58 % 0.0 in
16:16 -0.7 °F -7.9 °F 1024.9 in NE 13.2 mph 28.0 mph 58 % 0.0 in
16:21 -0.7 °F -7.9 °F 1024.9 in ENE 14.5 mph 21.6 mph 58 % 0.0 in
16:26 -0.8 °F -8.1 °F 1024.9 in ENE 13.8 mph 21.2 mph 58 % 0.0 in
16:31 -0.8 °F -8.1 °F 1024.9 in NE 12.6 mph 21.2 mph 58 % 0.0 in
16:36 -0.8 °F -8.1 °F 1024.9 in NE 13.4 mph 30.6 mph 58 % 0.0 in
16:41 -0.8 °F -8.1 °F 1024.9 in NE 12.9 mph 30.6 mph 58 % 0.0 in
16:46 -0.8 °F -8.3 °F 1024.9 in NE 12.4 mph 28.5 mph 57 % 0.0 in
16:47 -0.8 °F -8.3 °F 1024.9 in ENE 12.2 mph 28.5 mph 57 % 0.0 in
16:52 -0.8 °F -8.3 °F 1024.9 in ENE 11.6 mph 28.5 mph 57 % 0.0 in
16:57 -0.8 °F -8.3 °F 1026.0 in NE 8.7 mph 19.5 mph 57 % 0.0 in
17:02 -0.8 °F -8.3 °F 1026.0 in NE 10.3 mph 21.2 mph 57 % 0.0 in
17:07 -0.8 °F -8.3 °F 1026.0 in NE 10.8 mph 21.2 mph 57 % 0.0 in
17:12 -0.8 °F -8.3 °F 1026.0 in ENE 8.0 mph 16.9 mph 57 % 0.0 in
17:17 -0.9 °F -8.4 °F 1026.0 in NE 8.2 mph 16.9 mph 57 % 0.0 in
17:22 -0.9 °F -8.4 °F 1026.0 in NE 9.3 mph 19.8 mph 57 % 0.0 in
17:27 -0.9 °F -8.4 °F 1026.0 in NE 9.2 mph 19.8 mph 57 % 0.0 in
17:32 -0.9 °F -8.4 °F 1026.0 in NE 8.2 mph 19.5 mph 57 % 0.0 in
17:37 -0.9 °F -8.4 °F 1026.0 in ENE 10.5 mph 31.7 mph 57 % 0.0 in
17:42 -0.9 °F -8.6 °F 1026.0 in ENE 12.9 mph 31.7 mph 56 % 0.0 in
17:47 -0.9 °F -8.6 °F 1026.0 in NE 11.9 mph 22.7 mph 56 % 0.0 in
17:52 -0.9 °F -8.6 °F 1026.0 in NE 10.8 mph 17.7 mph 56 % 0.0 in
17:57 -0.9 °F -8.6 °F 1026.0 in NE 10.1 mph 16.9 mph 56 % 0.0 in
18:02 -0.9 °F -8.6 °F 1026.0 in NE 8.8 mph 16.9 mph 56 % 0.0 in
18:07 -0.9 °F -8.6 °F 1026.0 in NE 8.0 mph 14.0 mph 56 % 0.0 in
18:12 -1.0 °F -8.7 °F 1024.9 in NE 6.9 mph 13.0 mph 56 % 0.0 in
18:17 -0.9 °F -8.6 °F 1024.9 in ENE 9.2 mph 20.1 mph 56 % 0.0 in
18:23 -1.0 °F -8.7 °F 1024.9 in ENE 10.0 mph 20.1 mph 56 % 0.0 in
18:28 -1.0 °F -8.7 °F 1026.0 in East 5.8 mph 9.7 mph 56 % 0.0 in
18:33 -1.0 °F -8.7 °F 1026.0 in East 5.5 mph 10.1 mph 56 % 0.0 in
18:38 -1.0 °F -8.7 °F 1026.0 in ENE 6.8 mph 15.8 mph 56 % 0.0 in
18:43 -1.0 °F -8.7 °F 1027.0 in ENE 7.1 mph 15.8 mph 56 % 0.0 in
18:48 -1.0 °F -8.7 °F 1027.0 in NE 7.4 mph 13.7 mph 56 % 0.0 in
18:53 -1.0 °F -8.7 °F 1027.0 in ENE 8.0 mph 17.2 mph 56 % 0.0 in
18:58 -1.0 °F -8.4 °F 1027.0 in East 7.2 mph 17.2 mph 57 % 0.0 in
19:03 -1.0 °F -8.4 °F 1027.0 in ENE 7.1 mph 13.0 mph 57 % 0.0 in
19:08 -1.0 °F -8.7 °F 1027.0 in ENE 9.8 mph 27.4 mph 56 % 0.0 in
19:13 -1.0 °F -8.7 °F 1027.0 in NE 10.8 mph 27.4 mph 56 % 0.0 in
19:18 -1.0 °F -8.7 °F 1027.0 in NE 9.2 mph 26.7 mph 56 % 0.0 in
19:23 -1.0 °F -8.7 °F 1027.0 in NE 11.7 mph 25.6 mph 56 % 0.0 in
19:28 -1.0 °F -8.7 °F 1027.0 in NE 11.1 mph 25.6 mph 56 % 0.0 in
19:33 -1.0 °F -8.9 °F 1027.0 in ENE 7.6 mph 15.8 mph 55 % 0.0 in
19:38 -1.0 °F -8.9 °F 1027.0 in NE 8.4 mph 20.9 mph 55 % 0.0 in
19:43 -1.0 °F -8.9 °F 1027.0 in ENE 9.8 mph 20.9 mph 55 % 0.0 in
19:48 -1.0 °F -8.9 °F 1027.0 in ENE 10.1 mph 23.0 mph 55 % 0.0 in
19:53 -1.0 °F -8.9 °F 1027.0 in NE 11.6 mph 36.0 mph 55 % 0.0 in
19:58 -1.0 °F -8.9 °F 1028.0 in NE 12.1 mph 36.0 mph 55 % 0.0 in
20:03 -1.0 °F -8.9 °F 1028.0 in ENE 12.9 mph 16.6 mph 55 % 0.0 in
20:08 -1.1 °F -9.0 °F 1028.0 in ENE 13.5 mph 27.4 mph 55 % 0.0 in
20:13 -1.1 °F -9.0 °F 1028.0 in ENE 13.4 mph 28.0 mph 55 % 0.0 in
20:18 -1.1 °F -9.0 °F 1028.0 in NE 11.3 mph 28.0 mph 55 % 0.0 in
20:23 -1.0 °F -8.9 °F 1028.0 in NE 10.6 mph 28.0 mph 55 % 0.0 in
20:28 -1.0 °F -8.9 °F 1028.0 in NNE 10.0 mph 28.5 mph 55 % 0.0 in
20:33 -1.1 °F -9.0 °F 1028.0 in NNE 9.2 mph 28.5 mph 55 % 0.0 in
20:38 -1.1 °F -9.0 °F 1028.0 in NNE 10.1 mph 27.7 mph 55 % 0.0 in
20:43 -1.1 °F -9.0 °F 1028.0 in ENE 10.8 mph 27.7 mph 55 % 0.0 in
20:48 -1.1 °F -9.0 °F 1028.0 in East 10.8 mph 21.2 mph 55 % 0.0 in
20:53 -1.1 °F -9.0 °F 1028.0 in ENE 11.1 mph 24.8 mph 55 % 0.0 in
20:58 -1.1 °F -9.0 °F 1029.0 in ENE 12.1 mph 27.7 mph 55 % 0.0 in
21:03 -1.0 °F -8.9 °F 1029.0 in ENE 13.4 mph 27.7 mph 55 % 0.0 in
21:08 -1.0 °F -8.9 °F 1029.0 in ENE 11.9 mph 23.3 mph 55 % 0.0 in
21:13 -1.0 °F -8.9 °F 1028.0 in ENE 9.8 mph 24.5 mph 55 % 0.0 in
21:18 -1.0 °F -8.9 °F 1028.0 in ENE 10.6 mph 28.8 mph 55 % 0.0 in
21:23 -1.0 °F -8.9 °F 1028.0 in NE 11.9 mph 29.1 mph 55 % 0.0 in
21:28 -1.0 °F -8.9 °F 1028.0 in NE 14.5 mph 29.1 mph 55 % 0.0 in
21:33 -1.0 °F -8.9 °F 1028.0 in NE 14.3 mph 23.0 mph 55 % 0.0 in
21:38 -1.0 °F -8.9 °F 1028.0 in NE 12.4 mph 24.5 mph 55 % 0.0 in
21:43 -1.0 °F -8.9 °F 1028.0 in ENE 13.8 mph 24.8 mph 55 % 0.0 in
21:48 -1.0 °F -8.9 °F 1028.0 in ENE 13.0 mph 24.8 mph 55 % 0.0 in
21:53 -1.0 °F -8.9 °F 1028.0 in ENE 11.3 mph 23.3 mph 55 % 0.0 in
21:58 -1.0 °F -8.9 °F 1029.0 in NE 14.0 mph 32.0 mph 55 % 0.0 in
22:03 -1.0 °F -9.2 °F 1029.0 in NE 17.4 mph 38.9 mph 54 % 0.0 in
22:08 -1.0 °F -8.9 °F 1029.0 in ENE 13.2 mph 38.9 mph 55 % 0.0 in
22:13 -1.0 °F -8.9 °F 1028.0 in ENE 14.0 mph 26.7 mph 55 % 0.0 in
22:18 -1.0 °F -8.9 °F 1028.0 in ENE 17.2 mph 27.7 mph 55 % 0.0 in
22:23 -1.0 °F -8.9 °F 1028.0 in ENE 12.9 mph 27.7 mph 55 % 0.0 in
22:28 -1.0 °F -8.9 °F 1029.0 in ENE 10.3 mph 23.8 mph 55 % 0.0 in
22:33 -1.0 °F -8.9 °F 1029.0 in ENE 11.7 mph 25.3 mph 55 % 0.0 in
22:38 -1.0 °F -8.9 °F 1029.0 in ENE 11.7 mph 25.3 mph 55 % 0.0 in
22:43 -1.1 °F -9.0 °F 1029.0 in East 9.8 mph 20.9 mph 55 % 0.0 in
22:49 -1.1 °F -9.0 °F 1029.0 in East 9.8 mph 20.9 mph 55 % 0.0 in
22:54 -1.1 °F -9.0 °F 1029.0 in East 10.5 mph 20.1 mph 55 % 0.0 in
22:59 -1.2 °F -8.9 °F 1028.0 in East 11.6 mph 21.2 mph 56 % 0.0 in
23:04 -1.2 °F -8.9 °F 1028.0 in East 10.9 mph 21.2 mph 56 % 0.0 in
23:09 -1.1 °F -9.0 °F 1028.0 in ENE 9.3 mph 18.3 mph 55 % 0.0 in
23:14 -1.1 °F -8.8 °F 1027.0 in ENE 8.8 mph 18.3 mph 56 % 0.0 in
23:19 -1.1 °F -8.8 °F 1027.0 in ENE 10.3 mph 21.2 mph 56 % 0.0 in
23:24 -1.1 °F -8.8 °F 1027.0 in ENE 10.9 mph 21.2 mph 56 % 0.0 in
23:29 -1.1 °F -8.8 °F 1027.0 in East 10.8 mph 17.7 mph 56 % 0.0 in
23:34 -1.1 °F -8.8 °F 1027.0 in ENE 11.7 mph 17.7 mph 56 % 0.0 in
23:39 -1.1 °F -8.8 °F 1027.0 in ENE 11.3 mph 17.7 mph 56 % 0.0 in
23:44 -1.1 °F -8.8 °F 1027.0 in East 10.9 mph 17.2 mph 56 % 0.0 in
23:49 -1.1 °F -8.8 °F 1027.0 in ENE 11.4 mph 23.8 mph 56 % 0.0 in
23:54 -1.1 °F -8.8 °F 1027.0 in ENE 11.9 mph 36.0 mph 56 % 0.0 in
23:59 -1.1 °F -8.8 °F 1027.0 in ENE 11.3 mph 36.0 mph 56 % 0.0 in
Vremenska postaja Senovo
Podatki zbrani iz Weather Underground - 3 mb

Script developed by  Jim McMurry - jmcmurry@mwt.net Adapted for the template by  Wim van der Kuil - Leuven-Template.eu

Vremenski podatki so objavljeni na:

European Weather Network

WeatherCloud

Weather Underground

AWEKAS

HAMweather, WeatherForYou, PWS Weather

MapView

Geostik

Slovenia weather network

Oprema, ki se uporablja:

Vremenski program
Cumulus

Vremenski server
Asus

Cumulus

Asus